Flag for Guinea

Past Weather in Conakry, Guinea — Yesterday and Last 2 Weeks

Now
75 °F

Light rain. Mostly cloudy.


Feels Like: 73 °F
Forecast: 80 / 78 °F
Wind: 12 mph from Northwest

Location: Conakry / Gbessia

Current Time: Aug 10, 2020 at 9:08:08 am

Latest Report: Aug 10, 2020 at 7:00 am


Visibility: 1 mi

Pressure: 29.95 "Hg

Humidity: 100%

Dew Point: 75 °F

Location of ConakryLocation

Past Weather in Conakry — Graph

°F

Conakry Temperature Yesterday

Maximum temperature yesterday: 79 °F (at 3:00 pm)
Minimum temperature yesterday: 75 °F (at 7:00 am)
Average temperature yesterday: 76 °F

High & Low Weather Summary for the Past Weeks

 TemperatureHumidityPressure
High82 °F (Jul 31, 12:00 pm)100% (Jul 26, 5:00 pm)30.04 "Hg (Jul 26, 5:00 pm)
Low73 °F (Jul 30, 11:00 am)74% (Aug 5, 6:00 pm)29.83 "Hg (Jul 26, 6:00 pm)
Average77 °F92%29.96 "Hg
* Reported Jul 26 3:00 pm — Aug 10 7:00 am, Conakry. Weather by CustomWeather, © 2020

Note: Actual official high and low records may vary slightly from our data, if they occured in-between our weather recording intervals... More about our weather records

Conakry Weather History for the Previous 24 Hours

Scroll right to see more
 ConditionsComfort  
Time TempWeatherWind HumidityBarometerVisibility
7:00 am
Mon, Aug 10
75 °FLight rain. Mostly cloudy.12 mph100%29.95 "Hg1 mi
6:00 am75 °FLight rain. Mostly cloudy.12 mph100%29.92 "Hg2 mi
5:00 am77 °FLight rain. Mostly cloudy.9 mph94%29.92 "Hg5 mi
3:00 am77 °FLight rain. Mostly cloudy.9 mph94%29.92 "Hg5 mi
12:00 am77 °FPassing clouds.9 mph94%29.98 "HgN/A
10:00 pm
Sun, Aug 9
77 °FPartly cloudy.12 mph94%29.98 "HgN/A
9:00 pm77 °FPartly cloudy.12 mph94%29.95 "HgN/A
8:00 pm77 °FPartly cloudy.12 mph94%29.95 "HgN/A
7:00 pm77 °FLight rain. Mostly cloudy.12 mph94%29.95 "Hg5 mi
6:00 pm77 °FLight rain. Mostly cloudy.12 mph94%29.92 "Hg5 mi
5:00 pm77 °FLight rain. Mostly cloudy.9 mph94%29.92 "Hg5 mi
4:00 pm77 °FRain. Mostly cloudy.7 mph94%29.95 "Hg2 mi
3:00 pm79 °FRain. Mostly cloudy.12 mph100%29.98 "Hg1 mi
2:00 pm77 °FLight rain. Mostly cloudy.9 mph100%29.98 "Hg2 mi
1:00 pm77 °FLight rain. Mostly cloudy.14 mph100%30.01 "Hg2 mi
12:00 pm75 °FRain. Mostly cloudy.7 mph100%30.04 "Hg1 mi
11:00 am75 °FLight rain. Mostly cloudy.12 mph100%30.04 "Hg1 mi
10:00 am75 °FLight rain. Mostly cloudy.14 mph100%30.01 "Hg1 mi
9:00 am75 °FLight rain. Mostly cloudy.14 mph100%30.01 "Hg1 mi
Weather by CustomWeather, © 2020

See weather overview